Temp
22 23 25 25 24 22 24 25 25 26 24 27 25 24 24 21 19 19 18 18 20 19 19 19 19 19 19 19 19 19 18 19 19 19 19 19 19 19 20 19 20 19 19 19
22 22 23 24 24 24 24 23 23 23 24 23 22 20 20 20 19 19 18 17 18 19 19 19 18 18 19 19 19 19 19 18 18 18 18 18 19 18 19 19 19 20 19 19
23 21 23 23 24 24 23 23 24 23 26 22 21 20 20 20 18 18 18 18 18 18 18 18 18 18 18 18 19 19 19 19 18 17 17 18 18 18 19 18 19 19 18 19
21 21 21 24 21 22 23 23 22 22 23 22 21 19 18 18 19 18 18 19 18 17 17 17 17 17 17 17 17 18 18 18 18 18 18 17 18 17 18 18 19 19 18 18
21 22 21 22 21 22 23 23 22 23 23 20 17 18 20 19 19 17 17 17 17 16 16 16 17 17 16 16 17 17 17 17 17 17 18 18 17 17 17 17 17 18 18 18
18 21 21 24 22 21 23 23 23 22 22 20 18 22 23 19 19 17 17 16 16 15 15 16 16 15 15 16 16 16 16 17 17 17 17 17 16 16 16 16 16 16 18 18
21 22 22 22 21 21 22 23 22 21 20 18 20 20 18 17 16 16 15 14 13 12 13 14 14 15 14 15 15 15 15 15 16 17 18 17 17 15 15 15 15 16 16 17
18 20 21 20 20 23 23 20 20 19 18 18 17 18 16 14 12 12 12 12 12 12 12 13 14 14 13 14 15 14 14 14 15 14 15 14 14 14 15 15 15 15 15 16
21 23 19 19 21 20 20 20 19 20 19 18 16 14 13 13 12 13 12 12 12 12 12 12 13 13 13 14 13 13 13 12 12 12 13 14 14 15 15 15 15 15 15 15
19 20 19 19 17 19 19 20 20 19 19 16 15 13 13 12 13 13 13 13 12 12 12 12 13 13 13 14 13 13 13 13 12 11 11 12 14 14 14 15 15 15 15 14
19 17 17 17 17 18 19 19 19 18 17 16 14 13 13 13 13 12 12 12 12 12 12 12 12 13 13 13 13 13 13 13 12 12 11 11 11 11 12 13 13 13 13 13
22 19 21 20 17 18 19 18 18 18 16 14 13 13 12 12 13 13 12 12 12 12 12 12 12 12 12 13 13 13 14 14 12 12 11 11 11 10 10 10 10 10 10 11
17 17 19 19 19 19 18 18 17 17 16 15 13 13 12 13 13 13 13 12 12 12 12 12 12 12 12 13 13 12 15 13 12 12 11 12 12 11 11 11 11 11 11 11
17 17 15 16 17 18 18 17 16 16 15 14 13 13 13 12 12 12 12 12 13 12 12 12 12 12 12 12 13 12 13 13 12 12 12 11 11 11 11 11 11 11 11 11
17 18 18 18 18 17 17 16 15 15 14 13 13 13 12 12 12 12 12 12 12 12 12 12 12 12 12 12 12 12 12 12 12 12 11 11 11 11 11 11 11 10 9 9
17 18 17 17 18 17 17 15 14 14 14 13 12 12 13 12 13 12 13 12 12 12 12 12 12 12 13 13 13 12 12 13 13 13 12 11 12 12 12 11 11 10 10 10
16 16 17 16 17 17 18 17 15 16 14 14 13 13 13 13 13 13 13 13 12 13 13 13 13 13 13 13 13 13 13 12 13 13 12 12 12 12 11 11 11 10 11 11
16 16 17 17 18 19 18 17 16 16 15 15 14 13 13 13 13 13 13 13 12 12 12 12 12 13 13 13 13 13 13 13 12 12 12 12 12 12 12 12 11 11 11 11
16 17 18 17 18 19 18 18 17 17 16 16 15 14 14 14 13 13 13 13 13 13 13 12 12 12 12 12 12 12 12 12 12 12 12 12 12 12 12 12 12 12 12 12
17 17 17 18 18 18 18 18 18 17 17 16 16 15 14 14 14 14 14 14 14 12 13 13 12 12 12 13 12 12 12 12 13 13 12 12 12 12 12 12 12 12 12 11
18 18 18 18 19 18 18 19 18 18 18 17 17 17 16 15 15 14 14 13 14 13 13 12 12 12 12 12 12 12 13 12 12 12 12 12 12 12 12 12 12 12 12 11
18 18 18 19 18 19 19 19 18 18 18 18 17 17 16 16 15 15 15 15 14 14 13 13 12 12 12 12 12 12 12 12 12 12 12 12 12 12 12 12 12 11 11 11
18 18 19 19 19 19 19 19 19 19 18 18 18 18 18 17 17 16 16 16 15 14 14 13 13 13 13 13 12 12 12 12 12 12 12 12 12 12 12 12 11 11 10 10
17 18 19 19 19 19 19 19 19 20 20 18 18 18 18 17 17 17 17 16 16 15 14 14 14 13 13 13 13 13 12 12 12 12 12 12 12 11 11 11 10 10 10 9
14 15 17 18 18 19 19 19 19 19 19 19 19 18 18 17 17 18 18 17 17 15 15 14 14 13 13 13 13 13 12 12 12 12 12 12 11 11 10 10 10 10 9 9
15 15 16 16 17 17 18 19 19 19 19 19 19 19 19 19 18 17 17 17 17 16 15 14 14 13 13 13 13 12 12 12 12 12 12 11 11 11 10 10 9 9 9 8
15 15 15 16 16 17 17 18 18 19 19 19 18 18 18 18 17 17 17 16 16 16 15 15 14 13 13 13 13 12 12 11 11 11 11 11 11 11 10 10 9 9 8 7
Height
1471 1467 1467 1470 1476 1481 1478 1478 1483 1476 1482 1471 1474 1478 1482 1485 1487 1489 1491 1492 1494 1495 1497 1498 1499 1501 1502 1504 1506 1508 1511 1513 1516 1519 1521 1523 1524 1528 1530 1532 1534 1537 1539 1542
1473 1471 1471 1472 1473 1475 1476 1479 1478 1478 1477 1473 1476 1479 1482 1484 1487 1489 1491 1492 1493 1495 1497 1498 1499 1500 1501 1502 1502 1504 1506 1508 1510 1512 1513 1515 1517 1519 1521 1525 1526 1528 1531 1534
1474 1474 1474 1480 1468 1470 1471 1473 1470 1477 1467 1473 1476 1477 1480 1483 1485 1488 1489 1491 1492 1494 1496 1496 1498 1499 1499 1500 1500 1501 1501 1503 1503 1505 1505 1507 1509 1511 1511 1515 1519 1519 1523 1525
1477 1476 1490 1462 1467 1466 1467 1468 1470 1470 1470 1471 1474 1477 1478 1480 1482 1484 1486 1488 1489 1491 1493 1494 1496 1497 1498 1498 1498 1498 1498 1498 1498 1497 1497 1497 1499 1499 1501 1505 1508 1511 1514 1517
1474 1474 1477 1466 1465 1466 1466 1467 1467 1467 1468 1472 1474 1475 1477 1478 1479 1481 1483 1485 1486 1488 1490 1491 1493 1494 1495 1496 1496 1495 1494 1493 1491 1489 1486 1485 1485 1488 1490 1493 1496 1501 1505 1509
1477 1476 1481 1455 1457 1460 1462 1471 1461 1464 1466 1470 1474 1475 1473 1476 1477 1478 1480 1482 1484 1486 1487 1488 1490 1491 1492 1493 1493 1492 1490 1487 1484 1481 1477 1474 1474 1476 1480 1484 1487 1491 1495 1500
1463 1463 1460 1453 1457 1461 1473 1466 1456 1460 1465 1469 1471 1472 1473 1474 1475 1476 1478 1480 1482 1483 1484 1486 1487 1489 1490 1490 1489 1487 1483 1479 1475 1469 1465 1462 1463 1465 1470 1474 1478 1480 1487 1492
1467 1469 1468 1451 1457 1458 1452 1454 1456 1459 1462 1466 1469 1470 1471 1473 1475 1476 1477 1478 1479 1480 1482 1483 1485 1487 1488 1488 1486 1483 1479 1472 1464 1458 1455 1451 1449 1456 1463 1467 1469 1473 1480 1484
1447 1444 1443 1444 1443 1447 1450 1452 1455 1458 1461 1465 1467 1468 1471 1472 1473 1474 1475 1476 1476 1477 1479 1481 1483 1484 1486 1486 1484 1482 1479 1470 1461 1455 1450 1448 1450 1454 1458 1462 1464 1466 1468 1476
1443 1439 1441 1444 1444 1445 1449 1452 1454 1456 1459 1462 1465 1466 1469 1470 1471 1472 1473 1473 1474 1474 1475 1478 1480 1483 1484 1484 1484 1481 1479 1473 1466 1457 1451 1448 1448 1450 1453 1455 1457 1462 1463 1467
1437 1438 1441 1445 1443 1445 1448 1451 1454 1455 1458 1460 1463 1465 1467 1469 1469 1470 1471 1471 1472 1472 1474 1476 1478 1481 1483 1484 1483 1481 1480 1477 1473 1465 1457 1452 1452 1452 1452 1454 1457 1457 1459 1467
1427 1427 1428 1432 1438 1443 1447 1450 1453 1454 1456 1459 1462 1464 1466 1468 1469 1471 1471 1471 1471 1472 1473 1474 1477 1480 1482 1484 1484 1483 1479 1481 1480 1475 1470 1466 1465 1462 1462 1461 1463 1464 1470 1476
1432 1428 1430 1432 1435 1441 1446 1449 1451 1453 1455 1458 1461 1464 1466 1468 1470 1472 1472 1472 1472 1473 1474 1474 1476 1479 1482 1483 1484 1484 1481 1482 1483 1482 1479 1478 1475 1475 1476 1476 1479 1479 1483 1490
1430 1432 1434 1435 1435 1441 1446 1448 1451 1453 1455 1459 1461 1464 1467 1468 1469 1471 1472 1473 1473 1474 1474 1475 1476 1478 1481 1483 1485 1485 1484 1485 1484 1485 1484 1484 1483 1483 1482 1483 1486 1487 1491 1493
1431 1433 1433 1435 1436 1441 1446 1448 1450 1453 1455 1459 1462 1465 1466 1468 1469 1472 1473 1474 1475 1476 1476 1477 1477 1478 1480 1483 1484 1483 1486 1487 1487 1487 1488 1489 1489 1489 1490 1491 1491 1496 1497 1500
1434 1434 1433 1436 1437 1441 1444 1448 1451 1454 1456 1458 1461 1464 1466 1468 1470 1472 1474 1476 1478 1479 1480 1480 1480 1481 1483 1484 1486 1487 1489 1490 1490 1491 1492 1494 1494 1495 1497 1499 1500 1503 1505 1507
1428 1430 1433 1436 1438 1440 1443 1447 1451 1453 1455 1458 1460 1462 1464 1466 1469 1472 1474 1476 1479 1480 1482 1483 1484 1485 1486 1488 1489 1490 1492 1493 1494 1495 1498 1499 1500 1501 1502 1506 1508 1509 1510 1513
1428 1430 1433 1436 1438 1440 1444 1448 1450 1452 1455 1457 1459 1461 1463 1465 1468 1471 1474 1477 1479 1481 1483 1485 1486 1487 1489 1491 1492 1493 1494 1496 1498 1500 1501 1503 1504 1506 1507 1509 1510 1513 1514 1517
1427 1428 1431 1435 1437 1440 1443 1446 1449 1452 1454 1456 1458 1460 1462 1465 1468 1471 1473 1476 1479 1481 1483 1485 1486 1488 1490 1492 1493 1495 1497 1498 1500 1502 1504 1505 1507 1508 1510 1512 1514 1516 1518 1520
1423 1427 1430 1432 1435 1438 1441 1444 1447 1450 1453 1455 1457 1459 1461 1464 1466 1469 1472 1474 1477 1480 1482 1484 1486 1488 1489 1491 1493 1495 1497 1498 1500 1501 1503 1505 1507 1509 1510 1512 1513 1516 1517 1520
1420 1424 1426 1428 1429 1434 1439 1442 1445 1448 1451 1454 1456 1458 1460 1462 1464 1467 1470 1472 1475 1478 1480 1482 1484 1486 1488 1489 1491 1492 1495 1496 1498 1500 1502 1503 1505 1507 1509 1511 1513 1515 1517 1520
1417 1419 1422 1425 1426 1429 1433 1437 1442 1445 1448 1451 1454 1457 1459 1460 1462 1464 1467 1469 1472 1475 1476 1478 1480 1482 1484 1486 1488 1490 1492 1494 1496 1498 1499 1500 1502 1504 1507 1510 1512 1514 1517 1518
1414 1416 1418 1421 1423 1424 1428 1432 1436 1440 1443 1445 1447 1451 1453 1456 1458 1460 1462 1465 1468 1471 1473 1475 1477 1479 1481 1483 1484 1486 1488 1491 1493 1495 1497 1498 1500 1503 1506 1508 1510 1512 1513 1514
1410 1413 1416 1419 1421 1423 1425 1428 1431 1434 1437 1439 1442 1444 1448 1451 1453 1455 1458 1460 1463 1466 1468 1470 1472 1475 1477 1478 1480 1481 1483 1486 1489 1492 1494 1496 1498 1500 1502 1505 1506 1507 1508 1509
1414 1413 1413 1415 1418 1420 1423 1426 1428 1430 1433 1434 1435 1437 1440 1444 1447 1449 1452 1454 1458 1461 1463 1465 1468 1470 1472 1474 1475 1477 1478 1481 1484 1487 1490 1492 1495 1497 1499 1501 1502 1503 1504 1506
1414 1414 1414 1416 1417 1419 1420 1422 1424 1426 1428 1429 1430 1431 1433 1435 1438 1441 1444 1448 1451 1455 1458 1461 1463 1465 1467 1470 1472 1473 1475 1477 1480 1483 1486 1489 1491 1493 1496 1498 1499 1501 1502 1504
1415 1414 1415 1415 1416 1417 1419 1420 1420 1421 1422 1422 1422 1424 1426 1427 1429 1431 1434 1439 1442 1447 1450 1454 1458 1461 1464 1466 1467 1469 1470 1473 1476 1478 1481 1484 1487 1490 1492 1494 1496 1497 1498 1500
Wind_Speed
2 5 5 11 12 11 10 6 8 5 10 9 14 12 9 6 3 2 3 4 5 5 6 8 9 11 12 16 21 26 31 35 38 37 37 36 40 39 32 30 29 29 32 33
3 4 3 7 7 9 8 5 5 5 8 3 8 6 7 7 6 5 4 4 5 5 5 5 6 8 9 11 14 15 22 28 27 31 36 36 38 40 34 33 32 30 30 33
6 3 4 5 13 11 6 6 7 8 4 8 7 9 7 8 8 7 7 8 7 8 7 7 7 6 6 8 11 13 16 20 23 26 32 35 35 38 42 38 34 29 32 31
5 8 6 1 1 4 8 5 8 3 5 5 2 3 5 7 8 9 9 10 10 9 9 8 7 5 5 5 7 10 14 18 22 28 33 36 37 37 38 38 40 39 36 33
6 6 3 3 5 7 8 7 9 6 5 3 2 1 1 3 6 6 7 9 10 9 8 8 8 6 5 4 5 7 11 15 19 24 31 36 38 38 43 45 44 42 33 34
4 6 8 6 7 7 6 7 12 13 7 7 6 4 2 3 3 7 8 9 10 10 11 11 10 8 4 4 8 13 17 21 24 27 32 34 35 37 36 35 35 39 35 35
6 4 3 5 10 11 9 2 5 16 10 12 5 5 5 4 5 8 8 8 7 9 11 10 9 8 6 6 12 17 21 24 27 29 31 34 37 35 33 30 30 35 34 33
3 3 6 15 11 9 5 5 5 9 12 11 8 9 7 5 5 6 7 8 8 8 9 11 8 6 4 5 12 16 20 22 22 20 16 20 24 32 30 30 34 33 32 33
6 6 2 29 3 9 9 9 8 11 12 10 10 8 7 7 7 8 8 8 9 10 10 10 10 8 3 4 9 14 16 26 24 15 12 8 15 24 28 27 36 35 35 30
4 6 7 22 6 14 11 10 10 10 11 10 8 7 7 6 6 7 8 9 9 10 10 8 9 10 8 8 9 8 16 26 30 19 11 5 16 20 18 28 32 36 31 28
2 1 5 13 9 11 12 12 12 10 8 7 9 9 8 6 5 4 2 4 6 7 8 8 10 13 12 10 10 14 16 23 26 31 30 17 7 1 10 19 23 28 26 32
4 12 5 11 23 15 13 13 11 8 9 10 12 14 12 10 8 6 6 4 5 5 5 7 11 16 11 11 11 13 17 17 17 25 33 40 34 28 21 14 13 21 31 37
5 9 7 11 21 16 14 13 9 10 11 18 16 13 12 11 10 7 5 5 6 5 6 8 11 15 12 12 10 4 12 6 8 13 19 24 31 35 36 32 30 31 32 29
2 12 9 14 13 18 14 12 14 13 15 17 14 13 13 11 10 7 5 6 7 7 8 9 11 13 14 10 8 2 3 6 1 8 13 19 22 26 31 29 29 27 22 18
11 4 5 12 21 17 15 19 16 15 18 17 14 14 13 12 11 11 9 11 12 12 12 11 11 13 14 9 5 6 10 11 11 13 13 14 15 19 20 19 20 23 24 23
15 4 12 17 19 19 20 17 15 16 16 17 16 16 13 12 13 13 13 13 12 13 15 15 17 17 15 15 16 17 16 16 17 18 18 17 18 20 21 21 22 22 22 23
4 8 12 17 22 23 19 17 15 16 16 17 17 17 16 16 15 16 17 15 13 14 14 12 13 14 15 15 13 14 14 16 15 16 16 18 20 19 18 18 20 20 20 19
6 9 11 17 23 21 20 19 16 14 16 17 18 17 18 19 19 18 19 18 16 14 12 12 11 11 10 10 10 12 14 14 15 15 16 17 17 16 15 15 17 19 19 16
8 15 14 20 22 24 22 20 18 15 15 16 18 17 15 16 18 19 20 19 16 14 13 12 11 10 8 10 10 11 11 11 11 10 10 11 11 12 13 12 13 13 13 11
13 13 13 18 20 23 24 22 19 19 17 16 16 16 16 17 18 19 19 19 16 14 14 12 11 10 8 10 11 11 11 9 9 8 10 10 8 8 9 11 10 10 9 7
14 15 15 14 22 26 27 23 22 21 19 18 18 15 14 16 18 18 20 19 19 17 15 13 11 10 10 12 13 11 9 10 11 9 9 10 9 10 9 11 11 11 8 8
13 15 15 14 16 26 28 25 23 22 22 21 20 19 18 18 19 19 20 18 17 18 17 15 14 11 11 12 15 15 14 12 12 9 9 10 13 14 13 13 12 11 10 10
11 12 15 15 11 18 25 26 23 21 23 25 25 24 23 23 21 22 23 20 20 19 19 18 15 12 13 13 14 17 19 18 16 12 10 12 13 15 16 15 14 11 10 12
9 13 16 19 17 13 17 24 23 19 16 19 27 28 28 28 27 25 24 22 20 22 22 20 18 17 16 15 14 16 19 21 20 16 14 13 16 19 17 14 11 10 11 12
6 4 13 19 23 23 20 21 21 21 19 19 17 23 30 31 33 28 26 26 23 22 24 23 20 20 19 18 17 16 18 21 22 20 19 16 18 20 17 12 10 10 11 12
4 1 2 2 7 13 19 22 23 22 23 23 23 23 23 28 32 34 34 30 26 25 25 24 24 24 24 22 20 18 19 21 22 22 22 19 19 21 18 13 10 10 11 14
6 7 7 8 8 8 11 13 14 15 18 24 27 27 27 25 28 32 34 35 33 27 29 27 25 26 26 24 22 20 21 23 24 24 25 23 22 22 21 17 12 11 14 17
Wind_Direction
105 136 162 163 170 179 192 187 215 221 217 221 207 210 211 210 199 164 141 151 177 192 207 215 220 227 238 246 248 252 252 254 256 260 261 255 250 249 264 246 245 245 245 246
127 139 154 170 193 202 218 196 231 220 229 210 196 178 197 199 214 215 199 195 196 201 209 217 221 225 233 243 253 254 242 246 252 258 257 259 266 253 264 259 247 240 246 245
157 148 149 227 214 205 201 208 222 203 210 151 178 198 210 216 212 207 219 227 228 234 230 230 235 236 236 245 256 262 265 263 256 252 256 257 260 255 262 260 253 248 248 246
125 159 216 14 245 222 227 216 197 209 175 172 126 153 211 226 229 228 222 231 235 238 235 230 226 220 242 258 266 270 271 269 266 265 261 259 256 255 254 251 254 261 257 243
161 192 334 233 198 179 188 205 204 219 206 147 118 351 339 299 247 233 224 231 238 238 238 228 232 229 226 250 275 286 287 283 278 272 264 262 258 252 249 253 256 252 251 248
153 178 211 224 172 153 145 238 205 211 208 179 163 211 227 332 248 231 235 236 240 243 243 235 230 219 230 264 305 311 308 300 291 278 272 261 257 252 246 243 246 243 250 246
162 177 224 226 153 149 192 215 188 200 187 169 196 237 235 254 232 224 227 226 229 248 247 224 210 212 235 302 329 329 325 314 303 290 278 260 257 246 243 246 245 246 238 236
113 153 232 159 139 195 184 151 160 170 181 191 213 237 243 236 204 203 223 232 239 247 245 214 206 202 232 335 343 343 340 326 310 300 284 289 247 234 233 246 242 232 231 226
195 204 73 177 157 171 160 148 155 174 191 210 216 219 214 219 217 240 218 230 248 240 236 218 208 200 192 34 33 14 7 13 1 334 297 251 238 233 229 235 238 239 219 224
156 189 203 187 146 174 154 155 164 178 188 192 183 181 191 197 227 231 239 241 238 238 222 217 198 181 160 117 53 44 34 34 29 26 5 284 225 216 227 228 223 219 208 208
222 139 133 199 185 166 163 162 160 164 178 182 165 163 157 164 187 183 198 218 212 204 203 194 196 179 167 144 104 77 62 52 47 48 49 48 53 159 199 208 207 194 189 182
197 190 161 190 190 173 161 161 167 177 169 160 158 149 155 150 139 135 109 120 151 162 175 180 182 178 168 154 127 83 54 28 51 63 73 77 74 83 88 104 146 142 132 122
287 141 130 147 173 175 172 173 177 167 164 157 157 164 163 155 149 138 124 110 118 130 152 162 170 175 176 155 152 81 31 84 67 77 86 84 87 89 85 86 95 101 103 110
185 130 109 153 156 163 176 169 158 156 156 161 163 170 172 170 163 161 141 130 131 129 136 153 160 172 175 166 170 231 28 147 140 112 111 121 119 114 109 111 115 118 120 121
164 145 167 163 152 161 173 164 158 159 164 171 176 179 178 174 173 166 146 130 124 124 124 121 132 157 167 172 158 141 126 117 111 120 129 125 120 118 118 123 122 115 110 108
185 170 148 162 157 163 164 168 169 172 171 177 180 182 177 173 167 162 153 138 127 122 116 115 117 120 123 122 120 122 119 116 115 116 116 122 119 115 113 113 113 114 113 115
208 159 174 171 172 170 173 180 182 183 180 182 182 178 175 171 169 163 159 149 142 133 127 125 124 122 126 128 127 126 125 121 121 121 128 131 127 122 118 123 125 126 128 130
256 205 207 197 185 176 183 186 183 180 185 182 182 181 179 180 177 170 164 159 155 148 145 143 137 133 140 147 149 141 136 133 132 130 133 140 138 134 126 122 126 128 126 128
223 200 216 216 208 194 189 185 185 181 181 182 184 186 184 183 181 180 177 175 172 169 167 164 161 158 161 164 156 159 157 158 154 150 161 158 155 155 153 149 144 143 139 135
230 215 221 221 221 216 206 195 187 188 190 185 182 181 182 184 185 188 188 191 191 186 182 181 186 191 188 185 180 183 189 187 187 192 185 178 182 190 189 181 178 176 170 168
223 211 217 218 221 224 220 210 202 198 200 200 197 190 186 186 189 194 201 203 200 198 199 198 201 209 210 205 203 200 196 193 187 185 193 201 204 202 201 197 191 188 189 198
223 219 215 221 228 217 216 215 214 212 212 214 210 209 206 203 202 206 211 210 208 207 212 217 218 222 224 219 218 216 213 209 209 219 210 210 205 200 193 189 185 192 203 212
230 224 216 213 234 220 211 212 217 225 225 224 226 220 219 217 219 219 221 218 216 213 221 227 229 230 230 234 232 225 221 218 218 214 206 193 184 188 190 190 193 206 224 222
230 223 220 214 215 214 205 208 213 229 242 240 236 238 231 227 227 233 237 238 230 222 223 233 230 230 233 240 242 235 223 217 217 215 206 197 200 197 195 200 216 227 221 216
37 205 217 222 222 220 220 219 223 228 236 242 246 241 239 240 239 239 235 240 239 235 230 231 230 231 236 239 240 239 225 214 213 213 210 207 206 203 206 213 217 214 212 202
339 308 87 196 220 224 225 227 228 233 239 245 247 248 247 242 240 240 241 238 237 236 235 234 231 229 234 238 240 240 225 214 211 211 211 211 210 211 213 213 215 210 205 197
276 288 277 251 234 233 234 232 235 241 251 253 255 251 250 251 245 243 243 240 236 232 236 233 234 238 239 237 239 240 232 221 217 215 212 216 216 217 216 215 218 215 205 197